| time (UTC) | temp F | wind direction | speed MPH | gust MPH | rain 1hr in | rain 24hr in | rain mn in | humidity % | barometer mb |
| 20260506073339 | 63 | 1 | 6.0 | 7.0 | 0.00 | 0.00 | 0.00 | 84 | 1008.5 |
| 20260506072836 | 63 | 342 | 4.0 | 6.0 | 0.00 | 0.00 | 0.00 | 84 | 1008.4 |
| 20260506072334 | 63 | 23 | 4.0 | 7.0 | 0.00 | 0.00 | 0.00 | 84 | 1008.5 |
| 20260506071831 | 63 | 341 | 6.0 | 8.0 | 0.00 | 0.00 | 0.00 | 84 | 1008.4 |
| 20260506071330 | 63 | 332 | 8.0 | 10.0 | 0.00 | 0.00 | 0.00 | 84 | 1008.4 |
| 20260506070826 | 63 | 353 | 2.0 | 6.0 | 0.00 | 0.00 | 0.00 | 84 | 1008.8 |
| 20260506070323 | 63 | 2 | 6.0 | 7.0 | 0.00 | 0.00 | 0.00 | 84 | 1009.0 |
| 20260506062300 | 64 | 5 | 2.0 | 3.0 | 0.00 | 0.00 | 0.00 | 83 | 1008.5 |
| 20260506061756 | 65 | 351 | 5.0 | 7.0 | 0.00 | 0.00 | 0.00 | 83 | 1008.3 |
| 20260506061253 | 65 | 348 | 4.0 | 7.0 | 0.00 | 0.00 | 0.00 | 83 | 1008.2 |
| 20260506060751 | 65 | 359 | 6.0 | 8.0 | 0.00 | 0.00 | 0.00 | 82 | 1008.2 |
| 20260506060249 | 65 | 11 | 7.0 | 9.0 | 0.00 | 0.00 | 0.00 | 82 | 1008.2 |
| 20260506051220 | 68 | 355 | 2.0 | 6.0 | 0.00 | 0.00 | 0.00 | 81 | 1008.2 |
| 20260506050719 | 69 | 345 | 6.0 | 7.0 | 0.00 | 0.00 | 0.00 | 80 | 1008.3 |
| 20260506050215 | 69 | 345 | 9.0 | 9.0 | 0.00 | 0.00 | 0.00 | 80 | 1007.9 |
| 20260506044707 | 69 | 341 | 4.0 | 7.0 | 0.00 | 0.00 | 0.00 | 80 | 1008.1 |
| 20260506044203 | 69 | 353 | 6.0 | 8.0 | 0.00 | 0.00 | 0.00 | 79 | 1007.9 |
| 20260506043701 | 70 | 342 | 7.0 | 8.0 | 0.00 | 0.00 | 0.00 | 79 | 1008.1 |
| 20260506043158 | 70 | 350 | 9.0 | 9.0 | 0.00 | 0.00 | 0.00 | 78 | 1007.7 |
| 20260506042657 | 70 | 334 | 8.0 | 9.0 | 0.00 | 0.00 | 0.00 | 78 | 1008.2 |
| 20260506042155 | 70 | 341 | 8.0 | 10.0 | 0.00 | 0.00 | 0.00 | 78 | 1007.9 |
| 20260506041653 | 71 | 7 | 8.0 | 10.0 | 0.00 | 0.00 | 0.00 | 77 | 1008.0 |
| 20260506041150 | 71 | 352 | 7.0 | 9.0 | 0.00 | 0.00 | 0.00 | 77 | 1007.7 |
| 20260506040647 | 71 | 15 | 7.0 | 9.0 | 0.00 | 0.00 | 0.00 | 77 | 1007.6 |
| 20260506040138 | 71 | 350 | 7.0 | 8.0 | 0.00 | 0.00 | 0.00 | 77 | 1007.8 |
| 20260506035636 | 72 | 318 | 4.0 | 7.0 | 0.00 | 0.00 | 0.00 | 76 | 1007.6 |
| 20260506035132 | 72 | 22 | 4.0 | 4.0 | 0.00 | 0.00 | 0.00 | 76 | 1007.6 |
| 20260506034629 | 72 | 343 | 2.0 | 4.0 | 0.00 | 0.00 | 0.00 | 76 | 1007.3 |
| 20260506034126 | 72 | 11 | 6.0 | 7.0 | 0.00 | 0.00 | 0.00 | 75 | 1007.1 |
| 20260506033623 | 72 | 323 | 4.0 | 6.0 | 0.00 | 0.00 | 0.00 | 76 | 1007.4 |
| 20260506033120 | 72 | 5 | 6.0 | 6.0 | 0.00 | 0.00 | 0.00 | 76 | 1007.1 |
| 20260506032618 | 72 | 351 | 5.0 | 6.0 | 0.00 | 0.00 | 0.00 | 76 | 1007.1 |
| 20260506032114 | 73 | 11 | 7.0 | 8.0 | 0.00 | 0.00 | 0.00 | 76 | 1007.2 |
| 20260506031611 | 73 | 10 | 6.0 | 7.0 | 0.00 | 0.00 | 0.00 | 76 | 1007.4 |
| 20260506031108 | 73 | 313 | 5.0 | 6.0 | 0.00 | 0.00 | 0.00 | 76 | 1007.4 |
| 20260506030607 | 73 | 320 | 6.0 | 7.0 | 0.00 | 0.00 | 0.00 | 75 | 1007.1 |
| 20260506030104 | 74 | 320 | 6.0 | 10.0 | 0.00 | 0.00 | 0.00 | 76 | 1007.1 |
| 20260506025601 | 75 | 316 | 7.0 | 8.0 | 0.00 | 0.00 | 0.00 | 75 | 1007.0 |
| 20260506025056 | 75 | 325 | 7.0 | 8.0 | 0.00 | 0.00 | 0.00 | 75 | 1006.5 |
| 20260506024554 | 77 | 314 | 7.0 | 9.0 | 0.00 | 0.00 | 0.00 | 78 | 1006.8 |
| 20260506024050 | 78 | 223 | 0.0 | 0.0 | 0.00 | 0.00 | 0.00 | 84 | 1006.4 |
| 20260506023546 | 78 | 232 | 0.0 | 0.0 | 0.00 | 0.00 | 0.00 | 85 | 1006.1 |
| 20260506023044 | 78 | 222 | 0.0 | 0.0 | 0.00 | 0.00 | 0.00 | 85 | 1006.0 |
| 20260506022541 | 78 | 199 | 0.0 | 0.0 | 0.00 | 0.00 | 0.00 | 85 | 1005.5 |
| 20260506022039 | 78 | 220 | 0.0 | 0.0 | 0.00 | 0.00 | 0.00 | 85 | 1005.4 |
| 20260506021536 | 78 | 189 | 0.0 | 0.0 | 0.00 | 0.00 | 0.00 | 84 | 1005.5 |
| 20260506021033 | 78 | 200 | 0.0 | 0.0 | 0.00 | 0.00 | 0.00 | 84 | 1005.2 |
| 20260506020531 | 78 | 198 | 0.0 | 0.0 | 0.00 | 0.00 | 0.00 | 84 | 1005.3 |
| 20260506020028 | 78 | 185 | 0.0 | 0.0 | 0.00 | 0.00 | 0.00 | 84 | 1005.0 |
| 20260506015525 | 78 | 184 | 0.0 | 0.0 | 0.00 | 0.00 | 0.00 | 84 | 1005.0 |
| 20260506015022 | 78 | 188 | 0.0 | 0.0 | 0.00 | 0.00 | 0.00 | 84 | 1005.0 |
| 20260506014519 | 78 | 198 | 0.0 | 0.0 | 0.00 | 0.00 | 0.00 | 84 | 1005.1 |
| 20260506014015 | 78 | 233 | 0.0 | 0.0 | 0.00 | 0.00 | 0.00 | 83 | 1005.1 |
| 20260506013513 | 78 | 235 | 0.0 | 0.0 | 0.00 | 0.00 | 0.00 | 83 | 1004.9 |
| 20260506013010 | 78 | 357 | 0.0 | 0.0 | 0.00 | 0.00 | 0.00 | 83 | 1004.7 |
| 20260506012506 | 79 | 206 | 0.0 | 0.0 | 0.00 | 0.00 | 0.00 | 83 | 1004.8 |
| 20260506012003 | 79 | 206 | 0.0 | 0.0 | 0.00 | 0.00 | 0.00 | 82 | 1004.4 |
| 20260506011501 | 79 | 142 | 4.0 | 4.0 | 0.00 | 0.00 | 0.00 | 82 | 1004.6 |
| 20260506010957 | 79 | 151 | 4.0 | 6.0 | 0.00 | 0.00 | 0.00 | 82 | 1004.2 |
| 20260506010456 | 79 | 167 | 0.0 | 0.0 | 0.00 | 0.00 | 0.00 | 82 | 1003.9 |
| 20260506005951 | 79 | 162 | 0.0 | 0.0 | 0.00 | 0.00 | 0.00 | 82 | 1004.1 |
| 20260506005449 | 79 | 208 | 5.0 | 9.0 | 0.00 | 0.00 | 0.00 | 82 | 1004.1 |
| 20260506004944 | 79 | 163 | 0.0 | 0.0 | 0.00 | 0.00 | 0.00 | 82 | 1004.1 |
| 20260506004443 | 80 | 162 | 3.0 | 6.0 | 0.00 | 0.00 | 0.00 | 81 | 1004.2 |
| 20260506003938 | 80 | 204 | 2.0 | 9.0 | 0.00 | 0.00 | 0.00 | 81 | 1004.3 |
| 20260506003435 | 80 | 144 | 6.0 | 7.0 | 0.00 | 0.00 | 0.00 | 81 | 1004.2 |
| 20260506002932 | 80 | 202 | 0.0 | 0.0 | 0.00 | 0.00 | 0.00 | 81 | 1004.2 |
| 20260506002428 | 81 | 190 | 2.0 | 9.0 | 0.00 | 0.00 | 0.00 | 80 | 1004.0 |
| 20260506001923 | 81 | 163 | 6.0 | 8.0 | 0.00 | 0.00 | 0.00 | 80 | 1004.1 |
| 20260506001421 | 81 | 160 | 3.0 | 4.0 | 0.00 | 0.00 | 0.00 | 80 | 1003.9 |
| 20260506000918 | 81 | 156 | 3.0 | 6.0 | 0.00 | 0.00 | 0.00 | 80 | 1003.8 |
| 20260506000416 | 81 | 167 | 4.0 | 6.0 | 0.00 | 0.00 | 0.00 | 80 | 1004.0 |
| 20260505235912 | 81 | 163 | 0.0 | 2.0 | 0.00 | 0.00 | 0.00 | 80 | 1003.9 |
| 20260505235410 | 81 | 170 | 1.0 | 4.0 | 0.00 | 0.00 | 0.00 | 80 | 1004.2 |
| 20260505234907 | 81 | 174 | 5.0 | 8.0 | 0.00 | 0.00 | 0.00 | 80 | 1003.9 |
| 20260505234404 | 81 | 171 | 6.0 | 8.0 | 0.00 | 0.00 | 0.00 | 79 | 1004.0 |
| 20260505233901 | 81 | 156 | 4.0 | 7.0 | 0.00 | 0.00 | 0.00 | 79 | 1004.2 |
| 20260505233359 | 82 | 207 | 9.0 | 11.0 | 0.00 | 0.00 | 0.00 | 79 | 1004.0 |
| 20260505232856 | 82 | 156 | 5.0 | 7.0 | 0.00 | 0.00 | 0.00 | 78 | 1003.8 |
| 20260505232354 | 82 | 192 | 5.0 | 7.0 | 0.00 | 0.00 | 0.00 | 78 | 1003.8 |
| 20260505231850 | 82 | 185 | 6.0 | 7.0 | 0.00 | 0.00 | 0.00 | 78 | 1003.8 |
| 20260505231348 | 83 | 158 | 3.0 | 9.0 | 0.00 | 0.00 | 0.00 | 78 | 1004.0 |
| 20260505230846 | 83 | 158 | 4.0 | 7.0 | 0.00 | 0.00 | 0.00 | 77 | 1003.7 |
| 20260505230343 | 83 | 153 | 8.0 | 13.0 | 0.00 | 0.00 | 0.00 | 77 | 1003.5 |
| 20260505225839 | 83 | 140 | 5.0 | 7.0 | 0.00 | 0.00 | 0.00 | 77 | 1003.6 |
| 20260505225337 | 83 | 193 | 0.0 | 0.0 | 0.00 | 0.00 | 0.00 | 77 | 1003.5 |
| 20260505224831 | 84 | 185 | 6.0 | 7.0 | 0.00 | 0.00 | 0.00 | 77 | 1003.5 |
| 20260505224330 | 84 | 178 | 3.0 | 3.0 | 0.00 | 0.00 | 0.00 | 76 | 1003.4 |
| 20260505223826 | 85 | 159 | 0.0 | 0.0 | 0.00 | 0.00 | 0.00 | 75 | 1003.5 |
| 20260505223323 | 85 | 187 | 5.0 | 6.0 | 0.00 | 0.00 | 0.00 | 74 | 1003.3 |
| 20260505222819 | 85 | 198 | 4.0 | 6.0 | 0.00 | 0.00 | 0.00 | 73 | 1003.7 |
| 20260505222315 | 85 | 176 | 3.0 | 6.0 | 0.00 | 0.00 | 0.00 | 73 | 1003.7 |
| 20260505221813 | 85 | 197 | 5.0 | 8.0 | 0.00 | 0.00 | 0.00 | 73 | 1003.6 |
| 20260505221309 | 85 | 196 | 4.0 | 6.0 | 0.00 | 0.00 | 0.00 | 74 | 1003.5 |
| 20260505220806 | 85 | 194 | 6.0 | 9.0 | 0.00 | 0.00 | 0.00 | 73 | 1003.4 |
| 20260505220303 | 86 | 157 | 8.0 | 9.0 | 0.00 | 0.00 | 0.00 | 72 | 1003.6 |
| 20260505215802 | 86 | 186 | 5.0 | 6.0 | 0.00 | 0.00 | 0.00 | 71 | 1003.7 |
| 20260505215259 | 86 | 185 | 1.0 | 3.0 | 0.00 | 0.00 | 0.00 | 72 | 1003.6 |
| 20260505214756 | 87 | 175 | 8.0 | 9.0 | 0.00 | 0.00 | 0.00 | 71 | 1003.7 |
| 20260505214254 | 87 | 188 | 4.0 | 6.0 | 0.00 | 0.00 | 0.00 | 71 | 1003.4 |
| 20260505213751 | 86 | 195 | 8.0 | 9.0 | 0.00 | 0.00 | 0.00 | 71 | 1003.4 |
| 20260505213249 | 86 | 173 | 6.0 | 8.0 | 0.00 | 0.00 | 0.00 | 71 | 1003.7 |
| 20260505212744 | 86 | 179 | 6.0 | 8.0 | 0.00 | 0.00 | 0.00 | 71 | 1003.6 |
| 20260505212242 | 87 | 186 | 6.0 | 9.0 | 0.00 | 0.00 | 0.00 | 69 | 1003.6 |
| 20260505211738 | 87 | 190 | 5.0 | 7.0 | 0.00 | 0.00 | 0.00 | 71 | 1003.8 |
| 20260505211236 | 87 | 160 | 4.0 | 6.0 | 0.00 | 0.00 | 0.00 | 70 | 1003.8 |
| 20260505210732 | 86 | 193 | 4.0 | 6.0 | 0.00 | 0.00 | 0.00 | 72 | 1003.9 |
| 20260505210229 | 86 | 228 | 6.0 | 9.0 | 0.00 | 0.00 | 0.00 | 71 | 1004.0 |
| 20260505205726 | 86 | 181 | 7.0 | 10.0 | 0.00 | 0.00 | 0.00 | 71 | 1003.9 |
| 20260505205224 | 86 | 177 | 9.0 | 13.0 | 0.00 | 0.00 | 0.00 | 71 | 1003.7 |
| 20260505204720 | 86 | 174 | 2.0 | 3.0 | 0.00 | 0.00 | 0.00 | 71 | 1003.8 |
| 20260505204219 | 86 | 194 | 9.0 | 11.0 | 0.00 | 0.00 | 0.00 | 70 | 1004.3 |
| 20260505203715 | 87 | 197 | 6.0 | 7.0 | 0.00 | 0.00 | 0.00 | 70 | 1004.1 |
| 20260505203212 | 86 | 217 | 5.0 | 9.0 | 0.00 | 0.00 | 0.00 | 73 | 1004.3 |
| 20260505202708 | 86 | 193 | 10.0 | 14.0 | 0.00 | 0.00 | 0.00 | 71 | 1004.3 |
| 20260505202204 | 86 | 195 | 5.0 | 8.0 | 0.00 | 0.00 | 0.00 | 72 | 1004.3 |
| 20260505201701 | 86 | 213 | 5.0 | 7.0 | 0.00 | 0.00 | 0.00 | 73 | 1004.1 |
| 20260505201159 | 85 | 222 | 7.0 | 11.0 | 0.00 | 0.00 | 0.00 | 71 | 1004.4 |
| 20260505200657 | 85 | 184 | 8.0 | 11.0 | 0.00 | 0.00 | 0.00 | 74 | 1004.2 |
| 20260505200153 | 85 | 240 | 2.0 | 4.0 | 0.00 | 0.00 | 0.00 | 73 | 1004.4 |
| 20260505195649 | 85 | 198 | 6.0 | 8.0 | 0.00 | 0.00 | 0.00 | 72 | 1004.3 |
| 20260505195147 | 84 | 208 | 9.0 | 10.0 | 0.00 | 0.00 | 0.00 | 73 | 1004.4 |
| 20260505194644 | 84 | 220 | 9.0 | 11.0 | 0.00 | 0.00 | 0.00 | 73 | 1004.5 |
| 20260505194140 | 84 | 190 | 6.0 | 6.0 | 0.00 | 0.00 | 0.00 | 74 | 1004.6 |
| 20260505193636 | 84 | 203 | 5.0 | 6.0 | 0.00 | 0.00 | 0.00 | 73 | 1004.4 |
| 20260505193134 | 84 | 236 | 6.0 | 7.0 | 0.00 | 0.00 | 0.00 | 73 | 1004.5 |
| 20260505192632 | 84 | 199 | 7.0 | 8.0 | 0.00 | 0.00 | 0.00 | 74 | 1004.5 |
| 20260505192129 | 83 | 237 | 9.0 | 11.0 | 0.00 | 0.00 | 0.00 | 72 | 1004.7 |
| 20260505191628 | 84 | 205 | 11.0 | 14.0 | 0.00 | 0.00 | 0.00 | 73 | 1004.7 |
| 20260505191125 | 83 | 190 | 5.0 | 6.0 | 0.00 | 0.00 | 0.00 | 75 | 1004.7 |
| 20260505190621 | 83 | 206 | 8.0 | 10.0 | 0.00 | 0.00 | 0.00 | 75 | 1004.6 |
| 20260505190116 | 83 | 224 | 9.0 | 11.0 | 0.00 | 0.00 | 0.00 | 73 | 1004.8 |
| 20260505185613 | 83 | 168 | 6.0 | 8.0 | 0.00 | 0.00 | 0.00 | 74 | 1004.8 |
| 20260505185109 | 83 | 196 | 6.0 | 9.0 | 0.00 | 0.00 | 0.00 | 74 | 1004.9 |
| 20260505184606 | 83 | 199 | 6.0 | 8.0 | 0.00 | 0.00 | 0.00 | 74 | 1004.8 |
| 20260505184103 | 82 | 227 | 6.0 | 7.0 | 0.00 | 0.00 | 0.00 | 75 | 1005.0 |
| 20260505183559 | 82 | 182 | 8.0 | 11.0 | 0.00 | 0.00 | 0.00 | 75 | 1005.0 |
| 20260505183057 | 82 | 218 | 9.0 | 11.0 | 0.00 | 0.00 | 0.00 | 74 | 1005.0 |
| 20260505182553 | 82 | 224 | 6.0 | 7.0 | 0.00 | 0.00 | 0.00 | 75 | 1005.3 |
| 20260505182050 | 81 | 198 | 7.0 | 9.0 | 0.00 | 0.00 | 0.00 | 75 | 1005.3 |
| 20260505181546 | 82 | 211 | 9.0 | 11.0 | 0.00 | 0.00 | 0.00 | 76 | 1005.3 |
| 20260505181044 | 82 | 209 | 8.0 | 10.0 | 0.00 | 0.00 | 0.00 | 76 | 1005.3 |
| 20260505180539 | 81 | 223 | 6.0 | 8.0 | 0.00 | 0.00 | 0.00 | 76 | 1005.1 |
| 20260505180038 | 81 | 162 | 10.0 | 15.0 | 0.00 | 0.00 | 0.00 | 76 | 1005.4 |
| 20260505175537 | 81 | 191 | 7.0 | 8.0 | 0.00 | 0.00 | 0.00 | 77 | 1005.2 |
| 20260505175035 | 80 | 202 | 9.0 | 15.0 | 0.00 | 0.00 | 0.00 | 78 | 1005.1 |
| 20260505174532 | 79 | 202 | 11.0 | 14.0 | 0.00 | 0.00 | 0.00 | 78 | 1005.3 |
| 20260505174028 | 80 | 209 | 9.0 | 13.0 | 0.00 | 0.00 | 0.00 | 78 | 1005.3 |
| 20260505173525 | 80 | 198 | 5.0 | 7.0 | 0.00 | 0.00 | 0.00 | 79 | 1005.0 |
| 20260505173022 | 79 | 214 | 6.0 | 11.0 | 0.00 | 0.00 | 0.00 | 78 | 1005.0 |
| 20260505172520 | 80 | 245 | 5.0 | 7.0 | 0.00 | 0.00 | 0.00 | 78 | 1005.2 |
| 20260505172015 | 79 | 165 | 10.0 | 11.0 | 0.00 | 0.00 | 0.00 | 78 | 1004.9 |
| 20260505171510 | 79 | 176 | 9.0 | 11.0 | 0.00 | 0.00 | 0.00 | 81 | 1004.9 |
| 20260505171008 | 78 | 190 | 8.0 | 11.0 | 0.00 | 0.00 | 0.00 | 80 | 1005.2 |
| 20260505170505 | 78 | 175 | 11.0 | 14.0 | 0.00 | 0.00 | 0.00 | 81 | 1005.2 |
| 20260505170000 | 78 | 214 | 9.0 | 11.0 | 0.00 | 0.00 | 0.00 | 81 | 1005.2 |
| 20260505165456 | 78 | 183 | 8.0 | 10.0 | 0.00 | 0.00 | 0.00 | 82 | 1005.1 |
| 20260505164952 | 77 | 195 | 10.0 | 14.0 | 0.00 | 0.00 | 0.00 | 82 | 1004.9 |
| 20260505164448 | 78 | 200 | 14.0 | 17.0 | 0.00 | 0.00 | 0.00 | 81 | 1004.9 |
| 20260505163946 | 78 | 205 | 8.0 | 10.0 | 0.00 | 0.00 | 0.00 | 82 | 1005.0 |
| 20260505163445 | 77 | 238 | 11.0 | 16.0 | 0.00 | 0.00 | 0.00 | 81 | 1005.0 |
| 20260505162944 | 77 | 214 | 9.0 | 10.0 | 0.00 | 0.00 | 0.00 | 82 | 1005.3 |
| 20260505162439 | 77 | 194 | 12.0 | 16.0 | 0.00 | 0.00 | 0.00 | 82 | 1005.5 |
| 20260505161936 | 77 | 184 | 14.0 | 16.0 | 0.00 | 0.00 | 0.00 | 82 | 1005.2 |
| 20260505161433 | 77 | 191 | 9.0 | 10.0 | 0.00 | 0.00 | 0.00 | 82 | 1005.0 |
| 20260505160930 | 77 | 187 | 5.0 | 7.0 | 0.00 | 0.00 | 0.00 | 82 | 1005.3 |
| 20260505160429 | 76 | 155 | 6.0 | 8.0 | 0.00 | 0.00 | 0.00 | 83 | 1005.0 |
| 20260505152904 | 74 | 186 | 11.0 | 14.0 | 0.00 | 0.00 | 0.00 | 85 | 1005.1 |
| 20260505152356 | 74 | 207 | 7.0 | 9.0 | 0.00 | 0.00 | 0.00 | 85 | 1005.1 |
| 20260505151855 | 75 | 217 | 11.0 | 16.0 | 0.00 | 0.00 | 0.00 | 85 | 1005.3 |
| 20260505151352 | 74 | 235 | 8.0 | 11.0 | 0.00 | 0.00 | 0.00 | 85 | 1005.4 |
| 20260505150849 | 74 | 244 | 7.0 | 9.0 | 0.00 | 0.00 | 0.00 | 85 | 1005.7 |
| 20260505150347 | 75 | 161 | 15.0 | 18.0 | 0.00 | 0.00 | 0.00 | 84 | 1005.4 |
| 20260505140311 | 73 | 196 | 13.0 | 16.0 | 0.00 | 0.00 | 0.00 | 87 | 1004.8 |
| 20260505130229 | 70 | 215 | 10.0 | 13.0 | 0.00 | 0.00 | 0.00 | 91 | 1004.6 |
| 20260505124719 | 70 | 218 | 9.0 | 17.0 | 0.00 | 0.00 | 0.00 | 92 | 1004.2 |
| 20260505124216 | 70 | 196 | 8.0 | 10.0 | 0.00 | 0.00 | 0.00 | 92 | 1004.1 |
| 20260505123711 | 69 | 200 | 7.0 | 10.0 | 0.00 | 0.00 | 0.00 | 92 | 1004.3 |
| 20260505123208 | 69 | 190 | 7.0 | 9.0 | 0.00 | 0.00 | 0.00 | 92 | 1004.4 |
| 20260505122704 | 69 | 196 | 9.0 | 10.0 | 0.00 | 0.00 | 0.00 | 92 | 1004.2 |
| 20260505122201 | 69 | 195 | 8.0 | 10.0 | 0.00 | 0.00 | 0.00 | 92 | 1004.0 |
| 20260505121653 | 69 | 175 | 10.0 | 11.0 | 0.00 | 0.00 | 0.00 | 92 | 1004.1 |
| 20260505121149 | 69 | 189 | 14.0 | 17.0 | 0.00 | 0.00 | 0.00 | 93 | 1003.9 |
| 20260505120646 | 69 | 156 | 10.0 | 13.0 | 0.00 | 0.00 | 0.00 | 92 | 1003.9 |
| 20260505120141 | 69 | 210 | 10.0 | 14.0 | 0.00 | 0.00 | 0.00 | 93 | 1003.8 |
| 20260505115635 | 69 | 199 | 11.0 | 14.0 | 0.00 | 0.00 | 0.00 | 92 | 1003.9 |
| 20260505115133 | 69 | 208 | 13.0 | 16.0 | 0.00 | 0.00 | 0.00 | 92 | 1004.0 |
| 20260505114625 | 69 | 215 | 7.0 | 10.0 | 0.00 | 0.00 | 0.00 | 92 | 1003.9 |
| 20260505114120 | 69 | 215 | 6.0 | 10.0 | 0.00 | 0.00 | 0.00 | 92 | 1003.8 |
| 20260505113617 | 69 | 171 | 11.0 | 14.0 | 0.00 | 0.00 | 0.00 | 92 | 1003.8 |
| 20260505113113 | 69 | 208 | 6.0 | 9.0 | 0.00 | 0.00 | 0.00 | 92 | 1003.9 |
| 20260505112609 | 69 | 196 | 9.0 | 10.0 | 0.00 | 0.00 | 0.00 | 92 | 1004.0 |
| 20260505112108 | 69 | 192 | 6.0 | 9.0 | 0.00 | 0.00 | 0.00 | 92 | 1003.8 |
| 20260505111602 | 69 | 191 | 4.0 | 7.0 | 0.00 | 0.00 | 0.00 | 92 | 1003.9 |
| 20260505111058 | 69 | 211 | 7.0 | 11.0 | 0.00 | 0.00 | 0.00 | 92 | 1003.8 |
| 20260505110555 | 69 | 198 | 2.0 | 6.0 | 0.00 | 0.00 | 0.00 | 92 | 1003.9 |
| 20260505102027 | 69 | 169 | 9.0 | 14.0 | 0.00 | 0.00 | 0.00 | 92 | 1004.0 |
| 20260505101526 | 69 | 203 | 15.0 | 18.0 | 0.00 | 0.00 | 0.00 | 91 | 1003.9 |
| 20260505101022 | 69 | 207 | 9.0 | 13.0 | 0.00 | 0.00 | 0.00 | 91 | 1004.0 |
| 20260505100519 | 69 | 211 | 8.0 | 16.0 | 0.00 | 0.00 | 0.00 | 91 | 1003.9 |
| 20260505100016 | 69 | 184 | 8.0 | 11.0 | 0.00 | 0.00 | 0.00 | 91 | 1003.6 |
| 20260505095512 | 70 | 150 | 9.0 | 13.0 | 0.00 | 0.00 | 0.00 | 91 | 1003.9 |
| 20260505095008 | 70 | 193 | 10.0 | 11.0 | 0.00 | 0.00 | 0.00 | 91 | 1003.8 |
| 20260505094505 | 70 | 196 | 5.0 | 7.0 | 0.00 | 0.00 | 0.00 | 91 | 1004.1 |
| 20260505094001 | 70 | 185 | 6.0 | 7.0 | 0.00 | 0.00 | 0.00 | 91 | 1003.9 |
| 20260505093458 | 70 | 213 | 11.0 | 14.0 | 0.00 | 0.00 | 0.00 | 91 | 1004.0 |
| 20260505092955 | 70 | 200 | 11.0 | 14.0 | 0.00 | 0.00 | 0.00 | 91 | 1003.9 |
| 20260505092453 | 70 | 206 | 13.0 | 16.0 | 0.00 | 0.00 | 0.00 | 91 | 1004.2 |
| 20260505091950 | 70 | 192 | 13.0 | 16.0 | 0.00 | 0.00 | 0.00 | 91 | 1004.1 |
| 20260505091448 | 70 | 199 | 6.0 | 8.0 | 0.00 | 0.00 | 0.00 | 91 | 1004.1 |
| 20260505090946 | 70 | 209 | 10.0 | 14.0 | 0.00 | 0.00 | 0.00 | 91 | 1004.1 |
| 20260505090443 | 70 | 221 | 12.0 | 13.0 | 0.00 | 0.00 | 0.00 | 91 | 1004.0 |
| 20260505085940 | 69 | 211 | 14.0 | 18.0 | 0.00 | 0.00 | 0.00 | 91 | 1004.2 |
| 20260505085438 | 69 | 200 | 10.0 | 11.0 | 0.00 | 0.00 | 0.00 | 91 | 1004.0 |
| 20260505084936 | 69 | 179 | 14.0 | 17.0 | 0.00 | 0.00 | 0.00 | 91 | 1004.0 |
| 20260505084434 | 69 | 214 | 8.0 | 10.0 | 0.00 | 0.00 | 0.00 | 91 | 1003.9 |
| 20260505083932 | 69 | 200 | 13.0 | 16.0 | 0.00 | 0.00 | 0.00 | 91 | 1003.8 |
| 20260505083429 | 69 | 197 | 10.0 | 13.0 | 0.00 | 0.00 | 0.00 | 91 | 1003.9 |
| 20260505082925 | 69 | 203 | 12.0 | 14.0 | 0.00 | 0.00 | 0.00 | 91 | 1004.2 |
| 20260505082421 | 69 | 197 | 13.0 | 16.0 | 0.00 | 0.00 | 0.00 | 91 | 1004.2 |
| 20260505081918 | 69 | 157 | 9.0 | 10.0 | 0.00 | 0.00 | 0.00 | 91 | 1004.1 |
| 20260505081415 | 69 | 215 | 13.0 | 15.0 | 0.00 | 0.00 | 0.00 | 91 | 1004.0 |
| 20260505080911 | 69 | 184 | 10.0 | 14.0 | 0.00 | 0.00 | 0.00 | 91 | 1004.1 |
| 20260505080408 | 69 | 174 | 10.0 | 13.0 | 0.00 | 0.00 | 0.00 | 91 | 1004.3 |
| 20260505075903 | 69 | 161 | 9.0 | 10.0 | 0.00 | 0.00 | 0.00 | 91 | 1004.4 |
| 20260505075400 | 69 | 190 | 13.0 | 15.0 | 0.00 | 0.00 | 0.00 | 91 | 1004.5 |
| 20260505074858 | 69 | 209 | 6.0 | 9.0 | 0.00 | 0.00 | 0.00 | 91 | 1004.5 |
| 20260505074355 | 69 | 195 | 13.0 | 16.0 | 0.00 | 0.00 | 0.00 | 91 | 1004.3 |